Gadsden, AL

8:31 AM CDT on October 22, 2019 (GMT -0500)
Gadsden Municipal

Weather History for KGAD - May, 2019

Change the Weather History Date:

Friday, May 24, 2019

  Actual Average Record
Temperature  
Mean Temperature 78 °F -  
Max Temperature 93 °F 79 °F 93 °F (1933)
Min Temperature 64 °F 57 °F 40 °F (1931)
Cooling Degree Days 12    
Growing Degree Days 28 (Base 50)    
Moisture  
Dew Point 72 °F    
Average Humidity 74    
Maximum Humidity 100    
Minimum Humidity 45    
Precipitation  
Precipitation 0.00 in - - ()
Sea Level Pressure  
Sea Level Pressure 30.14 in    
Wind  
Wind Speed 1 mph ()    
Max Wind Speed 9 mph    
Max Gust Speed -    
Visibility 7.4 miles    
Events Fog    
Averages and records for this station are not official NWS values.
T = Trace of Precipitation, MM = Missing Value Source: Averaged Metar Reports

Daily Weather History Graph

Daily Weather History Graph

Search for Another Location

Airport or City:

Astronomy

May. 24, 2019 Rise Set
Actual Time 5:37 AM CDT 7:45 PM CDT
Civil Twilight 5:09 AM CDT 8:13 PM CDT
Nautical Twilight 4:34 AM CDT 8:47 PM CDT
Astronomical Twilight 3:57 AM CDT 9:25 PM CDT
Moon 12:10 AM CDT (5/24) 10:36 AM CDT (5/24)
Length of Visible Light 15h 04m
Length of Day
14h 07m
Waning Gibbous, 68% of the Moon is Illuminated
May 24
Waning Gibbous
May 26
Last Quarter
Jun 3
New
Jun 10
First Quarter
Jun 17
Full

Hourly Weather History & Observations

Time (CDT) Temp. Heat Index Dew Point Humidity Pressure Visibility Wind Dir Wind Speed Gust Speed Precip Events Conditions
12:56 AM 69.1 °F - - N/A% 30.14 in 8.0 mi Calm Calm - N/A   Clear
1:56 AM 68.0 °F - - N/A% 30.15 in 8.0 mi Calm Calm - N/A   Clear
2:56 AM 66.9 °F - - N/A% 30.13 in 7.0 mi Calm Calm - N/A   Clear
3:56 AM 66.0 °F - - N/A% 30.13 in 10.0 mi Calm Calm - N/A   Clear
4:24 AM 66.2 °F - - N/A% 30.15 in 2.5 mi Calm Calm - N/A   Clear
4:31 AM 66.2 °F - - N/A% 30.15 in 3.0 mi Calm Calm - N/A   Clear
5:12 AM 66.2 °F - - N/A% 30.15 in 1.0 mi Calm Calm - N/A   Clear
5:22 AM 64.4 °F - - N/A% 30.15 in 2.5 mi Calm Calm - N/A   Clear
5:29 AM 66.2 °F - - N/A% 30.15 in 9.0 mi Calm Calm - N/A   Clear
5:56 AM 64.9 °F - - N/A% 30.16 in 2.5 mi Calm Calm - N/A   Clear
6:09 AM 66.2 °F - - N/A% 30.17 in 5.0 mi Calm Calm - N/A   Haze
6:56 AM 68.0 °F - - N/A% 30.18 in 5.0 mi Calm Calm - N/A   Haze
7:56 AM 73.9 °F - 73.9 °F 100% 30.20 in 10.0 mi Calm Calm - N/A   Clear
8:56 AM 81.0 °F 86.7 °F 75.0 °F 82% 30.21 in 10.0 mi Variable 3.5 mph - N/A   Clear
9:56 AM 84.9 °F 92.1 °F 73.9 °F 69% 30.20 in 10.0 mi Variable 5.8 mph - N/A   Clear
10:56 AM 86.0 °F 91.5 °F 71.1 °F 61% 30.20 in 10.0 mi SW 4.6 mph - N/A   Clear
11:56 AM 90.0 °F 96.4 °F 71.1 °F 54% 30.19 in 10.0 mi West 9.2 mph - N/A   Scattered Clouds
12:56 PM 89.1 °F 93.7 °F 69.1 °F 52% 30.18 in 10.0 mi Variable 3.5 mph - N/A   Clear
1:56 PM 90.0 °F 95.4 °F 70.0 °F 52% 30.16 in 10.0 mi West 4.6 mph - N/A   Clear
2:56 PM 91.0 °F 95.6 °F 69.1 °F 48% 30.14 in 10.0 mi Calm Calm - N/A   Clear
3:56 PM 91.9 °F 95.9 °F 68.0 °F 45% 30.13 in 10.0 mi Variable 4.6 mph - N/A   Clear
4:56 PM 90.0 °F 93.6 °F 68.0 °F 48% 30.12 in 10.0 mi South 3.5 mph - N/A   Clear
5:56 PM 90.0 °F 93.6 °F 68.0 °F 48% 30.11 in 10.0 mi South 3.5 mph - N/A   Clear
6:56 PM 87.1 °F 95.4 °F 73.9 °F 65% 30.10 in 10.0 mi Calm Calm - N/A   Clear
7:56 PM 80.1 °F 85.4 °F 75.9 °F 87% 30.10 in 10.0 mi Calm Calm - N/A   Clear
8:56 PM 77.0 °F - 75.0 °F 94% 30.09 in 10.0 mi Calm Calm - N/A   Clear
9:56 PM 73.9 °F - 73.9 °F 100% 30.11 in 10.0 mi Calm Calm - N/A   Clear
10:56 PM 72.0 °F - 72.0 °F 100% 30.10 in 10.0 mi Calm Calm - N/A   Clear
11:27 PM 71.6 °F - 71.6 °F 100% 30.10 in 0.2 mi Calm Calm - N/A Fog Fog
11:40 PM 71.6 °F - 71.6 °F 100% 30.10 in 0.8 mi Calm Calm - N/A   Clear
11:43 PM 69.8 °F - 69.8 °F 100% 30.10 in 1.2 mi NW 3.5 mph - N/A   Clear
11:56 PM 70.0 °F - - N/A% 30.10 in 10.0 mi Calm Calm - N/A   Clear